User: anonymous   Login
Location: Unspecified
(0.0000°N, 0.0000°E)
Time: 10:29:51
(UTC+00:00)
Language:

METEOR M2 - Orbit

View from above orbital plane
View from above orbital plane
View from above satellite
View from above satellite

Ground track
Ground track

The orbit data is extracted from the following two-line orbital elements,

1 40069U 14037A   18347.09463638 -.00000009  00000-0  15406-4 0  9996
2 40069  98.5799  33.2242 0006891  84.4847 275.7126 14.20656874229784
Epoch (UTC): 13 December 2018 02:16:16
Eccentricity: 0.0006891
inclination: 98.5799°
perigee height: 818 km
apogee height: 828 km
right ascension of ascending node: 33.2242°
argument of perigee: 84.4847°
revolutions per day: 14.20656874
mean anomaly at epoch: 275.7126°
orbit number at epoch: 22978

The dashed part of the orbit path shows where the satellite is in the earth's shadow,  

DLR